TimeCDT,TemperatureF,Dew PointF,Humidity,Sea Level PressureIn,VisibilityMPH,Wind Direction,Wind SpeedMPH,Gust SpeedMPH,PrecipitationIn,Events,Conditions,WindDirDegrees,DateUTC
12:53 AM,80.1,73.0,79,30.01,10.0,SE,4.6,-,N/A,,Clear,140,2013-09-10 05:53:00
1:53 AM,81.0,73.0,77,30.01,10.0,ESE,4.6,-,N/A,,Clear,120,2013-09-10 06:53:00
2:53 AM,81.0,73.0,77,30.01,10.0,ESE,4.6,-,N/A,,Clear,110,2013-09-10 07:53:00
3:53 AM,81.0,73.0,77,30.01,10.0,East,4.6,-,N/A,,Clear,100,2013-09-10 08:53:00
4:53 AM,82.0,73.9,76,30.02,10.0,East,3.5,-,N/A,,Clear,90,2013-09-10 09:53:00
5:53 AM,82.9,73.9,74,30.03,10.0,NE,5.8,-,N/A,,Clear,50,2013-09-10 10:53:00
6:53 AM,82.9,75.9,79,30.05,8.0,ENE,9.2,-,N/A,,Clear,60,2013-09-10 11:53:00
7:53 AM,82.9,75.9,79,30.07,9.0,ENE,10.4,-,N/A,,Clear,70,2013-09-10 12:53:00
8:53 AM,84.0,75.9,76,30.09,9.0,ENE,11.5,-,N/A,,Partly Cloudy,70,2013-09-10 13:53:00
9:53 AM,86.0,75.9,72,30.09,10.0,ENE,10.4,-,N/A,,Partly Cloudy,60,2013-09-10 14:53:00
10:53 AM,87.1,75.9,69,30.09,10.0,ENE,11.5,-,N/A,,Scattered Clouds,60,2013-09-10 15:53:00
11:31 AM,84.2,75.2,74,30.11,10.0,ESE,6.9,-,N/A,,Mostly Cloudy,120,2013-09-10 16:31:00
11:41 AM,84.2,73.4,70,30.11,10.0,SE,13.8,18.4,0.00,Rain,Rain,140,2013-09-10 16:41:00
11:53 AM,84.0,73.0,69,30.09,10.0,ESE,6.9,-,0.00,Rain,Rain,120,2013-09-10 16:53:00
12:53 PM,90.0,75.0,61,30.08,10.0,East,16.1,-,0.00,Rain,Rain,90,2013-09-10 17:53:00
1:53 PM,89.1,72.0,57,30.07,10.0,ESE,15.0,-,N/A,,Partly Cloudy,110,2013-09-10 18:53:00
2:53 PM,89.1,73.9,61,30.06,10.0,East,15.0,-,N/A,,Partly Cloudy,90,2013-09-10 19:53:00
3:53 PM,89.1,73.0,59,30.04,10.0,East,12.7,-,N/A,,Partly Cloudy,100,2013-09-10 20:53:00
4:53 PM,89.1,71.1,55,30.02,10.0,ESE,15.0,-,N/A,,Clear,110,2013-09-10 21:53:00
5:53 PM,87.1,73.0,63,30.03,10.0,ESE,13.8,-,N/A,,Clear,110,2013-09-10 22:53:00
6:53 PM,86.0,72.0,63,30.04,10.0,ESE,9.2,-,N/A,,Clear,110,2013-09-10 23:53:00
7:53 PM,84.0,73.9,72,30.05,10.0,ESE,8.1,-,N/A,,Clear,120,2013-09-11 00:53:00
8:53 PM,84.0,75.0,74,30.06,10.0,ESE,8.1,-,N/A,,Clear,110,2013-09-11 01:53:00
9:53 PM,84.0,73.9,72,30.08,10.0,East,11.5,-,N/A,,Clear,100,2013-09-11 02:53:00
10:53 PM,84.0,72.0,67,30.08,10.0,ESE,5.8,-,N/A,,Clear,110,2013-09-11 03:53:00
11:53 PM,82.9,72.0,69,30.07,10.0,East,8.1,-,N/A,,Clear,100,2013-09-11 04:53:00